This is the latest recevied weather packets stored in our database for station/object KC3QJO. If no packets are shown the sender has not sent any weather packets the latest 10 day(s).
| Time | Temp. | Humidity | Pressure | Rain* | Wind** | Luminosity | Snow |
|---|---|---|---|---|---|---|---|
| 1778091052 | 14.44° C | 93% | 1006.7 hPa | 2.29 mm | - | 53 W/m² | - |
| 1778088951 | 15° C | 92% | 1006.7 hPa | 1.78 mm | - | 93 W/m² | - |
| 1778088051 | 15° C | 92% | 1006.8 hPa | 1.27 mm | - | 102 W/m² | - |
| 1778087451 | 15° C | 91% | 1006.8 hPa | 0.76 mm | - | 116 W/m² | - |
| 1778083551 | 15° C | 91% | 1006.9 hPa | 1.52 mm | - | 81 W/m² | - |
| 1778080852 | 15.56° C | 89% | 1007.8 hPa | 1.27 mm | - | 47 W/m² | - |
| 1778080258 | 15.56° C | 88% | 1007.8 hPa | 1.27 mm | - | 67 W/m² | - |
| 1778079052 | 16.11° C | 87% | 1007.7 hPa | 1.02 mm | - | 91 W/m² | - |
| 1778077855 | 16.11° C | 84% | 1008 hPa | 0.51 mm | - | 65 W/m² | - |
| 1778076659 | 16.67° C | 82% | 1007.9 hPa | 0 mm | - | 39 W/m² | - |
| 1778073356 | 17.22° C | 78% | 1008 hPa | 0 mm | - | 70 W/m² | - |
| 1778072462 | 17.22° C | 76% | 1008.1 hPa | 0 mm | - | 33 W/m² | - |
| 1778072153 | 17.78° C | 75% | 1008.1 hPa | 0 mm | - | 37 W/m² | - |
| 1778070951 | 17.78° C | 74% | 1008 hPa | 0 mm | - | 53 W/m² | - |
| 1778070352 | 17.78° C | 74% | 1007.8 hPa | 0 mm | - | 81 W/m² | - |
| 1778066155 | 17.78° C | 74% | 1007.8 hPa | 0 mm | - | 40 W/m² | - |
| 1778064656 | 17.78° C | 74% | 1007.4 hPa | 0 mm | - | 58 W/m² | - |
| 1778063457 | 17.22° C | 74% | 1007.3 hPa | 0 mm | - | 26 W/m² | - |
| 1778062555 | 17.78° C | 74% | 1007.3 hPa | 0 mm | - | 18 W/m² | - |
| 1778061052 | 17.78° C | 73% | 1007.5 hPa | 0 mm | - | 0 W/m² | - |
| 1778060452 | 17.78° C | 72% | 1007.3 hPa | 0 mm | - | 0 W/m² | - |
| 1778060151 | 17.78° C | 72% | 1007.4 hPa | 0 mm | - | 0 W/m² | - |
| 1778059251 | 17.78° C | 71% | 1007.4 hPa | 0 mm | - | 0 W/m² | - |
| 1778058654 | 17.78° C | 70% | 1007.2 hPa | 0 mm | - | 0 W/m² | - |
| 1778058356 | 17.78° C | 70% | 1007.3 hPa | 0 mm | - | 0 W/m² | - |
* Rain latest hour (hover to see other rain measurements)
** Current wind speed in m/s (hover to see current wind gust speed)